DEIMOS-2
Last updated on Mon Jun 22 2026 00:02:51 GMT+0000 (Coordinated Universal Time)
1 40013U 14033D 26172.53738174 .00001554 00000+0 15187-3 0 9994
2 40013 97.5819 46.8723 0001408 60.2856 299.8504 14.93736204638372
Next 0 passes for location: London (51.5072 / 0.1276)
No passes found over London.